Location: Azul
(36.7830°S, 59.8500°W)
Time: 01:06:20
(UTC-03:00)

CUBEBUG 2 - Pass Details

Date: 01 November 2021
Orbit: 584 x 697 km, 97.7° (Epoch: 30 November)

Event Time Altitude Azimuth Distance (km) Brightness Sun altitude
Exits shadow 03:27:14 48° 65° (ENE) 815 ? -25.8°
Maximum altitude 03:28:01 56° 105° (ESE) 744 ? -25.6°
Drops below altitude 10° 03:32:22 10° 183° (S) 2,047 ? -25.0°
Sets 03:34:40 0° 187° (S) 2,984 ? -24.7°
